W8BS Weather Reports


time (UTC)temp
C
wind
direction
speed
KPH
gust
KPH
rain 1hr
cm
rain 24hr
cm
rain mn
cm
humidity
%
barometer
mb
20260508044020 3 191 0.0 0.0 0.00 0.00 0.00 85 1014.0
20260508043517 3 190 0.0 0.0 0.00 0.00 0.00 85 1014.0
20260508043014 3 190 0.0 0.0 0.00 0.00 0.00 86 1014.2
20260508042511 3 190 0.0 0.0 0.00 0.00 0.00 86 1014.0
20260508042008 3 193 0.0 0.0 0.00 0.00 0.00 86 1014.0
20260508041505 3 191 0.0 1.6 0.00 0.00 0.00 87 1013.9
20260508041001 3 191 1.6 1.6 0.00 0.00 0.00 87 1014.1
20260508040458 3 191 1.6 1.6 0.00 0.00 0.00 86 1013.8
20260508035956 3 191 1.6 1.6 0.00 0.20 0.20 85 1014.0
20260508035453 3 190 1.6 1.6 0.00 0.20 0.20 85 1013.8
20260508034949 4 190 1.6 1.6 0.00 0.20 0.20 86 1013.5
20260508034447 4 189 0.0 1.6 0.00 0.20 0.20 86 1013.8
20260508033943 4 189 0.0 1.6 0.00 0.20 0.20 86 1013.7
20260508033441 5 189 0.0 1.6 0.00 0.20 0.20 86 1013.5
20260508032938 4 189 0.0 3.2 0.00 0.20 0.20 84 1013.5
20260508032436 5 188 0.0 0.0 0.00 0.20 0.20 85 1013.4
20260508031932 5 189 0.0 0.0 0.00 0.20 0.20 86 1013.4
20260508031430 5 188 0.0 1.6 0.00 0.20 0.20 85 1013.4
20260508030925 5 190 1.6 1.6 0.00 0.20 0.20 83 1013.3
20260508030423 5 189 1.6 1.6 0.00 0.20 0.20 84 1013.3
20260508025920 5 188 1.6 1.6 0.00 0.20 0.20 80 1013.3
20260508025416 5 190 1.6 1.6 0.00 0.20 0.20 80 1013.1
20260508024913 5 189 0.0 3.2 0.00 0.20 0.20 82 1013.2
20260508024410 5 189 0.0 1.6 0.00 0.20 0.20 82 1013.2
20260508023906 6 191 0.0 3.2 0.00 0.20 0.20 80 1013.2
20260508023403 6 191 1.6 1.6 0.00 0.20 0.20 76 1013.2
20260508022900 6 189 1.6 3.2 0.00 0.20 0.20 79 1012.9
20260508022356 5 191 0.0 1.6 0.00 0.20 0.20 77 1012.8
20260508021853 6 191 1.6 1.6 0.00 0.20 0.20 78 1012.9
20260508021349 6 191 0.0 1.6 0.00 0.20 0.20 77 1013.0
20260508020845 6 194 1.6 3.2 0.00 0.20 0.20 80 1012.8
20260508020343 6 192 1.6 3.2 0.00 0.20 0.20 83 1012.6
20260508015840 6 190 1.6 1.6 0.00 0.20 0.20 80 1012.6
20260508015338 6 188 1.6 1.6 0.00 0.20 0.20 77 1012.7
20260508014834 7 184 1.6 1.6 0.00 0.20 0.20 72 1012.6
20260508014331 7 184 0.0 1.6 0.00 0.20 0.20 76 1012.7
20260508013826 7 183 0.0 1.6 0.00 0.20 0.20 76 1012.5
20260508013323 7 182 1.6 3.2 0.00 0.20 0.20 68 1012.5
20260508012820 7 184 1.6 1.6 0.00 0.20 0.20 68 1012.2
20260508012317 7 184 0.0 1.6 0.00 0.20 0.20 71 1012.5
20260508011815 8 182 1.6 3.2 0.00 0.20 0.20 68 1012.1
20260508011312 8 190 1.6 3.2 0.00 0.20 0.20 71 1012.1
20260508010809 8 192 0.0 3.2 0.00 0.20 0.20 69 1012.1
20260508010307 8 185 1.6 1.6 0.00 0.20 0.20 69 1012.2
20260508005804 8 186 1.6 1.6 0.00 0.20 0.20 68 1012.1
20260508005301 8 184 0.0 0.0 0.00 0.20 0.20 64 1012.1
20260508004756 9 184 0.0 0.0 0.00 0.20 0.20 69 1011.9
20260508004253 9 184 0.0 3.2 0.00 0.20 0.20 62 1011.9
20260508003749 9 185 0.0 1.6 0.00 0.20 0.20 64 1011.8
20260508003247 10 182 0.0 1.6 0.00 0.20 0.20 59 1011.7
20260508002743 10 193 3.2 4.8 0.00 0.20 0.20 59 1011.5
20260508002241 10 211 3.2 4.8 0.00 0.20 0.20 60 1011.7
20260508001736 10 180 0.0 3.2 0.00 0.20 0.20 60 1011.4
20260508001232 10 181 0.0 0.0 0.00 0.20 0.20 65 1011.3
20260508000729 10 190 1.6 3.2 0.00 0.20 0.20 60 1011.3
20260508000227 11 176 0.0 3.2 0.00 0.20 0.20 58 1011.1
20260507235722 11 195 3.2 3.2 0.00 0.20 0.20 57 1011.2
20260507235220 11 180 1.6 3.2 0.00 0.20 0.20 58 1011.4
20260507234717 11 201 3.2 11.3 0.00 0.20 0.20 56 1011.1
20260507234213 11 189 1.6 3.2 0.00 0.20 0.20 56 1011.2
20260507233710 11 177 1.6 3.2 0.00 0.20 0.20 55 1011.0
20260507233208 11 210 4.8 9.7 0.00 0.20 0.20 56 1011.1
20260507232705 11 181 3.2 3.2 0.00 0.20 0.20 57 1011.2
20260507232202 11 183 0.0 1.6 0.00 0.20 0.20 57 1010.9
20260507231658 11 193 3.2 8.0 0.00 0.20 0.20 55 1011.0
20260507231155 11 209 1.6 3.2 0.00 0.20 0.20 56 1011.1
20260507230652 11 190 1.6 4.8 0.00 0.20 0.20 55 1010.6
20260507230149 11 203 3.2 9.7 0.00 0.20 0.20 55 1010.8
20260507225649 12 0 1.6 4.8 0.00 0.20 0.20 56 1010.7
20260507225146 12 251 4.8 8.0 0.00 0.20 0.20 54 1010.6
20260507224641 12 166 3.2 4.8 0.00 0.20 0.20 55 1010.7
20260507224138 12 251 6.4 11.3 0.00 0.20 0.20 53 1010.4
20260507223634 12 188 3.2 9.7 0.00 0.20 0.20 54 1010.4
20260507223131 12 148 1.6 4.8 0.00 0.20 0.20 54 1010.2
20260507222628 12 198 6.4 9.7 0.00 0.20 0.20 53 1010.6
20260507222124 12 183 1.6 4.8 0.00 0.20 0.20 57 1010.7
20260507221621 12 157 1.6 3.2 0.00 0.20 0.20 55 1010.6
20260507221117 12 184 1.6 1.6 0.00 0.20 0.20 56 1010.4
20260507220615 12 278 4.8 4.8 0.00 0.20 0.20 54 1010.6
20260507220112 12 229 4.8 9.7 0.00 0.20 0.20 54 1010.3
20260507215608 13 223 11.3 12.9 0.00 0.20 0.20 53 1010.4
20260507215106 13 220 3.2 8.0 0.00 0.20 0.20 53 1010.0
20260507214603 13 261 4.8 11.3 0.00 0.20 0.20 52 1010.0
20260507214059 13 56 4.8 4.8 0.00 0.20 0.20 54 1010.0
20260507213555 13 182 1.6 8.0 0.00 0.20 0.20 54 1010.1
20260507213053 12 193 1.6 9.7 0.00 0.20 0.20 54 1010.1
20260507212548 12 198 4.8 8.0 0.00 0.20 0.20 54 1010.1
20260507212046 13 325 3.2 9.7 0.00 0.20 0.20 54 1010.0
20260507211542 13 191 0.0 3.2 0.00 0.20 0.20 55 1009.9
20260507211038 13 325 4.8 8.0 0.00 0.20 0.20 53 1010.0
20260507210536 13 196 1.6 9.7 0.00 0.20 0.20 54 1009.7
20260507210032 13 141 4.8 9.7 0.00 0.20 0.20 53 1010.0
20260507205529 13 225 4.8 8.0 0.00 0.20 0.20 52 1009.8
20260507205025 13 176 1.6 8.0 0.00 0.20 0.20 53 1009.9
20260507204521 13 178 1.6 4.8 0.00 0.20 0.20 54 1009.6
20260507204019 14 143 3.2 12.9 0.00 0.20 0.20 50 1009.7
20260507203517 13 219 1.6 8.0 0.00 0.20 0.20 52 1009.7
20260507203014 14 192 4.8 11.3 0.00 0.20 0.20 50 1009.9
20260507202510 15 239 8.0 12.9 0.00 0.20 0.20 51 1009.9
20260507202006 14 185 0.0 1.6 0.00 0.20 0.20 54 1010.0
20260507201502 14 202 3.2 8.0 0.00 0.20 0.20 52 1009.8
20260507200958 15 197 3.2 12.9 0.00 0.20 0.20 52 1009.8
20260507200454 15 200 3.2 12.9 0.00 0.20 0.20 51 1010.0
20260507195949 14 193 6.4 9.7 0.00 0.20 0.20 51 1010.0
20260507195448 15 203 6.4 11.3 0.00 0.20 0.20 52 1010.2
20260507194945 14 163 4.8 4.8 0.00 0.20 0.20 53 1010.3
20260507194441 15 250 4.8 8.0 0.00 0.20 0.20 54 1010.6
20260507193937 14 202 4.8 11.3 0.00 0.20 0.20 52 1010.6
20260507193434 14 198 4.8 9.7 0.00 0.20 0.20 51 1010.2
20260507192931 14 254 8.0 12.9 0.00 0.20 0.20 53 1010.2
20260507192427 12 311 3.2 8.0 0.00 0.20 0.20 59 1010.7
20260507191924 12 211 1.6 11.3 0.00 0.20 0.20 56 1010.2
20260507191420 12 277 6.4 14.5 0.00 0.20 0.20 58 1010.3
20260507190917 13 283 6.4 12.9 0.00 0.20 0.20 56 1010.6
20260507190415 13 220 3.2 11.3 0.00 0.20 0.20 55 1010.7
20260507185914 15 215 4.8 9.7 0.00 0.20 0.20 55 1010.2
20260507185410 15 218 3.2 8.0 0.00 0.20 0.20 53 1010.3
20260507184907 15 192 3.2 8.0 0.00 0.20 0.20 54 1010.6
20260507184405 13 190 1.6 3.2 0.00 0.20 0.20 54 1010.3
20260507183902 13 213 4.8 9.7 0.00 0.20 0.20 58 1010.6
20260507183359 13 253 3.2 8.0 0.00 0.20 0.20 58 1010.6
20260507182856 13 197 3.2 9.7 0.00 0.20 0.20 60 1010.7
20260507182352 14 193 1.6 9.7 0.00 0.20 0.20 60 1010.7
20260507181849 13 210 4.8 9.7 0.00 0.20 0.20 59 1010.8
20260507181344 14 187 1.6 4.8 0.00 0.20 0.20 60 1010.7
20260507180842 14 214 4.8 9.7 0.00 0.20 0.20 59 1010.7
20260507180338 13 172 4.8 12.9 0.00 0.20 0.20 61 1010.8
20260507175834 13 265 6.4 12.9 0.00 0.20 0.20 59 1010.8
20260507175331 13 175 4.8 8.0 0.00 0.20 0.20 62 1010.6
20260507174828 13 203 3.2 8.0 0.00 0.20 0.20 60 1010.8
20260507174326 13 249 4.8 8.0 0.00 0.20 0.20 63 1010.9
20260507173823 12 204 4.8 4.8 0.00 0.20 0.20 66 1010.9
20260507173320 12 197 1.6 4.8 0.00 0.20 0.20 65 1010.8
20260507172817 11 197 3.2 3.2 0.00 0.20 0.20 67 1011.0
20260507172314 11 198 3.2 3.2 0.00 0.20 0.20 68 1011.0
20260507171809 11 207 1.6 12.9 0.00 0.20 0.20 69 1011.2
20260507171307 12 249 3.2 3.2 0.00 0.20 0.20 65 1011.2
20260507170803 12 239 4.8 9.7 0.00 0.20 0.20 64 1011.2
20260507170300 12 219 6.4 8.0 0.00 0.20 0.20 68 1011.3
20260507165756 12 186 0.0 4.8 0.00 0.20 0.20 67 1011.5
20260507165252 11 197 0.0 8.0 0.00 0.20 0.20 67 1011.7
20260507164748 11 198 4.8 9.7 0.00 0.20 0.20 68 1011.6
20260507164245 11 199 4.8 4.8 0.00 0.20 0.20 69 1011.3
20260507163742 11 222 4.8 8.0 0.00 0.20 0.20 71 1011.6
20260507163240 11 179 3.2 11.3 0.00 0.20 0.20 69 1011.6
20260507162736 11 190 3.2 3.2 0.00 0.20 0.20 67 1011.6
20260507162232 12 206 4.8 11.3 0.00 0.20 0.20 66 1011.8
20260507161729 11 225 1.6 3.2 0.00 0.20 0.20 68 1011.8
20260507161225 10 278 4.8 9.7 0.00 0.20 0.20 71 1011.9
20260507160721 11 190 1.6 8.0 0.00 0.20 0.20 69 1011.8
20260507160218 11 122 1.6 8.0 0.00 0.20 0.20 68 1011.8
20260507155714 11 252 4.8 9.7 0.00 0.20 0.20 68 1011.9
20260507155210 11 138 3.2 4.8 0.00 0.20 0.20 71 1011.8
20260507154707 11 194 0.0 4.8 0.00 0.20 0.20 69 1011.9
20260507154205 10 181 3.2 8.0 0.00 0.20 0.20 71 1012.2
20260507153701 10 128 1.6 9.7 0.00 0.20 0.20 70 1011.9
20260507153157 11 161 0.0 3.2 0.00 0.20 0.20 74 1011.9
20260507152654 10 101 6.4 8.0 0.00 0.20 0.20 74 1011.8
20260507152150 11 150 0.0 4.8 0.00 0.20 0.20 74 1011.8
20260507151646 10 133 0.0 4.8 0.00 0.20 0.20 73 1011.9
20260507151143 11 196 3.2 3.2 0.00 0.20 0.20 73 1011.9
20260507150640 10 158 0.0 3.2 0.00 0.20 0.20 80 1011.9
20260507150137 10 268 1.6 4.8 0.00 0.20 0.20 77 1012.3
20260507145632 10 112 0.0 1.6 0.00 0.20 0.20 75 1012.2
20260507145130 10 202 0.0 8.0 0.00 0.20 0.20 75 1012.1
20260507144626 10 222 4.8 4.8 0.00 0.20 0.20 82 1012.2
20260507144124 9 188 1.6 4.8 0.00 0.20 0.20 83 1012.3
20260507143620 9 187 1.6 3.2 0.00 0.20 0.20 86 1012.5
20260507143118 8 188 1.6 4.8 0.00 0.20 0.20 89 1012.7
20260507142613 7 182 3.2 4.8 0.00 0.20 0.20 91 1012.4
20260507142110 7 201 3.2 4.8 0.00 0.20 0.20 95 1012.7
20260507141606 7 183 1.6 1.6 0.00 0.20 0.20 99 1012.9
20260507141103 7 195 3.2 4.8 0.00 0.20 0.20 99 1012.7
20260507140600 7 183 1.6 1.6 0.00 0.20 0.20 99 1012.9
20260507140057 7 186 1.6 3.2 0.00 0.20 0.20 99 1012.9
20260507135554 7 197 1.6 1.6 0.00 0.20 0.20 99 1012.8
20260507135052 7 190 0.0 1.6 0.00 0.20 0.20 99 1012.9
20260507134548 7 227 1.6 3.2 0.00 0.20 0.20 99 1013.1
20260507134044 7 189 1.6 1.6 0.00 0.20 0.20 99 1013.0
20260507133540 7 188 0.0 0.0 0.00 0.20 0.20 99 1012.9
20260507133038 7 187 0.0 0.0 0.00 0.20 0.20 99 1013.1
20260507132534 7 187 0.0 1.6 0.00 0.20 0.20 99 1013.2
20260507132031 7 187 0.0 1.6 0.00 0.20 0.20 99 1013.1
20260507131528 7 184 0.0 1.6 0.00 0.20 0.20 99 1013.0
20260507131025 7 189 0.0 3.2 0.00 0.20 0.20 99 1013.1
20260507130522 7 183 0.0 1.6 0.00 0.20 0.20 99 1013.0
20260507130020 7 185 0.0 1.6 0.00 0.20 0.20 99 1013.0
20260507125518 7 182 0.0 1.6 0.00 0.20 0.20 99 1013.2
20260507125015 7 187 1.6 3.2 0.00 0.20 0.20 99 1013.1
20260507124512 6 189 0.0 1.6 0.00 0.20 0.20 99 1013.1
20260507124010 7 187 1.6 1.6 0.00 0.20 0.20 99 1013.1
20260507123507 6 182 0.0 0.0 0.00 0.20 0.20 99 1013.3
20260507123003 6 183 0.0 1.6 0.00 0.20 0.20 99 1013.4
20260507122459 6 184 1.6 1.6 0.00 0.20 0.20 99 1013.0
20260507121955 6 186 0.0 0.0 0.00 0.20 0.20 99 1013.3
20260507121451 6 187 0.0 1.6 0.00 0.20 0.20 99 1013.4
20260507120947 6 186 0.0 0.0 0.00 0.20 0.20 99 1013.3
20260507120443 6 186 0.0 1.6 0.00 0.20 0.20 99 1013.2
20260507115940 6 185 0.0 0.0 0.00 0.20 0.20 99 1013.0
20260507115436 6 185 0.0 0.0 0.00 0.20 0.20 99 1013.1
20260507114932 6 185 0.0 0.0 0.00 0.20 0.20 99 1013.0
20260507114429 6 186 0.0 1.6 0.00 0.20 0.20 99 1013.1
20260507113926 6 186 0.0 0.0 0.00 0.20 0.20 99 1013.2
20260507113423 6 186 0.0 1.6 0.00 0.20 0.20 99 1012.8
20260507112921 6 186 0.0 0.0 0.00 0.20 0.20 99 1012.7
20260507112418 6 186 0.0 0.0 0.00 0.20 0.20 99 1012.7
20260507111915 6 186 0.0 0.0 0.00 0.20 0.20 99 1012.3
20260507111412 6 186 0.0 0.0 0.00 0.20 0.20 99 1012.4
20260507110908 6 186 0.0 0.0 0.00 0.20 0.20 99 1012.7
20260507110404 6 186 0.0 0.0 0.00 0.20 0.20 99 1012.4
20260507105901 6 186 0.0 0.0 0.00 0.20 0.20 99 1012.4
20260507105358 6 186 0.0 0.0 0.00 0.20 0.20 99 1012.4
20260507104855 6 186 0.0 0.0 0.00 0.20 0.20 99 1012.1
20260507104351 6 186 0.0 1.6 0.00 0.20 0.20 99 1012.1
20260507103847 6 187 0.0 0.0 0.00 0.20 0.20 99 1012.1
20260507103344 6 186 0.0 0.0 0.00 0.20 0.20 99 1012.3
20260507102841 6 186 0.0 1.6 0.00 0.20 0.20 99 1012.1
20260507102337 6 186 0.0 0.0 0.00 0.20 0.20 99 1012.4
20260507101834 6 188 1.6 1.6 0.00 0.20 0.20 99 1012.2
20260507101334 6 189 0.0 1.6 0.00 0.20 0.20 99 1012.4
20260507100831 6 186 0.0 0.0 0.00 0.20 0.20 99 1012.3
20260507100329 6 186 0.0 0.0 0.00 0.20 0.20 99 1012.2
20260507095827 6 186 0.0 0.0 0.00 0.20 0.20 99 1012.2
20260507095323 6 186 0.0 1.6 0.00 0.20 0.20 99 1012.2
20260507094821 6 186 1.6 1.6 0.00 0.20 0.20 99 1011.9
20260507094317 6 186 0.0 0.0 0.00 0.20 0.20 99 1011.8
20260507093814 6 186 0.0 0.0 0.00 0.20 0.20 99 1012.2
20260507093312 6 186 0.0 0.0 0.00 0.20 0.20 99 1011.7
20260507092810 6 186 0.0 0.0 0.00 0.20 0.20 99 1011.8
20260507092307 6 185 0.0 1.6 0.00 0.20 0.20 99 1012.1
20260507091803 6 184 0.0 0.0 0.00 0.20 0.20 99 1012.1
20260507091259 6 187 0.0 1.6 0.00 0.20 0.20 99 1012.1
20260507090759 6 187 0.0 1.6 0.00 0.20 0.20 99 1011.9
20260507090256 6 187 1.6 1.6 0.00 0.20 0.20 99 1011.9
20260507085754 6 185 1.6 3.2 0.00 0.20 0.20 99 1012.3
20260507085250 6 186 0.0 1.6 0.00 0.20 0.20 99 1012.2
20260507084748 6 189 0.0 3.2 0.00 0.20 0.20 99 1012.1
20260507084244 6 186 1.6 1.6 0.00 0.20 0.20 99 1011.9
20260507083741 6 195 0.0 1.6 0.00 0.20 0.20 99 1011.7
20260507083238 6 192 1.6 4.8 0.00 0.20 0.20 99 1011.9
20260507082734 6 185 0.0 1.6 0.00 0.20 0.20 99 1012.3
20260507082230 6 194 3.2 3.2 0.13 0.20 0.20 99 1012.2
20260507081727 6 185 0.0 3.2 0.13 0.20 0.20 99 1012.1
20260507081223 6 273 3.2 4.8 0.00 0.18 0.18 99 1012.2
20260507080720 6 324 4.8 9.7 0.00 0.18 0.18 99 1012.2
20260507080216 7 214 3.2 3.2 0.18 0.18 0.18 99 1012.3
20260507075711 7 194 1.6 4.8 0.18 0.18 0.18 99 1012.1
20260507075208 7 181 0.0 3.2 0.00 0.15 0.15 99 1012.1
20260507074704 7 180 4.8 4.8 0.00 0.15 0.15 99 1012.2
20260507074203 7 183 0.0 1.6 0.00 0.15 0.15 99 1012.1
20260507073659 7 204 1.6 3.2 0.18 0.15 0.15 99 1012.1
20260507073155 7 199 3.2 3.2 0.18 0.15 0.15 99 1011.8
20260507072653 7 192 1.6 1.6 0.00 0.13 0.13 99 1011.8
20260507072150 7 187 0.0 1.6 0.00 0.13 0.13 99 1011.8
20260507071648 7 184 0.0 1.6 0.00 0.13 0.13 99 1011.7
20260507071144 7 182 0.0 1.6 0.00 0.13 0.13 99 1012.1
20260507070641 7 185 0.0 0.0 0.00 0.13 0.13 99 1011.9
20260507070138 7 185 0.0 1.6 0.00 0.13 0.13 99 1011.8
20260507065634 7 187 1.6 1.6 0.00 0.13 0.13 99 1011.9
20260507065131 7 187 0.0 0.0 0.00 0.13 0.13 99 1011.7
20260507064629 7 189 1.6 1.6 0.00 0.13 0.13 99 1011.9
20260507064127 7 186 1.6 1.6 0.00 0.13 0.13 99 1012.2
20260507063624 7 186 0.0 0.0 0.00 0.13 0.13 99 1011.9
20260507063121 7 192 0.0 3.2 0.13 0.13 0.13 99 1012.1
20260507062618 7 191 0.0 0.0 0.13 0.13 0.13 99 1011.9
20260507062116 7 195 0.0 0.0 0.00 0.10 0.10 99 1012.1
20260507061613 7 201 0.0 0.0 0.18 0.10 0.10 99 1011.9
20260507061111 7 183 0.0 0.0 0.00 0.08 0.08 99 1012.1
20260507060609 7 183 0.0 0.0 0.00 0.08 0.08 99 1012.2
20260507060105 7 187 0.0 0.0 0.13 0.08 0.08 99 1012.3
20260507055600 7 183 0.0 0.0 0.13 0.08 0.08 99 1012.2
20260507055057 7 183 0.0 0.0 0.00 0.05 0.05 99 1012.3
20260507054553 7 183 0.0 0.0 0.00 0.05 0.05 99 1012.5
20260507054050 7 184 0.0 0.0 0.00 0.05 0.05 99 1012.7
20260507053548 7 183 0.0 0.0 0.00 0.05 0.05 99 1012.6
20260507053046 7 183 0.0 0.0 0.00 0.05 0.05 99 1012.6
20260507052544 7 186 0.0 0.0 0.00 0.05 0.05 99 1012.5
20260507052040 7 186 0.0 0.0 0.00 0.05 0.05 99 1012.7
20260507051538 7 186 0.0 0.0 0.00 0.05 0.05 99 1012.8
20260507051035 7 187 0.0 1.6 0.00 0.05 0.05 99 1012.6
20260507050531 7 184 0.0 0.0 0.00 0.05 0.05 99 1012.6
20260507050028 7 184 0.0 1.6 0.18 0.05 0.05 99 1012.8
20260507045524 7 187 0.0 1.6 0.18 0.05 0.05 99 1013.1
20260507045022 7 184 0.0 0.0 0.00 0.03 0.03 99 1012.7
20260507044518 7 183 0.0 0.0 0.00 0.03 0.03 99 1012.6